Lapse_Rate
7.1 7.2 7.1 6.5 5.9 6.5 6.6 6.2 5.5 5.2 5.2 5.4 5.1 5.0 4.8 4.7 5.0 5.5 5.7 5.9 5.7 5.7 5.5 5.4 5.4 5.5 5.5 5.5 5.4 5.5 5.6 5.7 5.6 6.2 5.9 5.7 5.5 5.5 5.7 5.6 5.7 5.8 5.8
7.5 7.5 7.2 6.5 6.2 6.1 6.0 5.7 6.0 5.1 5.2 5.2 5.1 4.5 4.6 5.2 5.2 5.5 5.6 5.7 5.8 5.7 5.6 5.7 5.6 5.6 5.9 5.8 5.7 5.8 5.9 5.9 6.1 6.1 6.2 5.5 5.6 5.9 6.0 5.7 5.5 5.7 5.7
7.5 7.5 7.1 6.7 6.3 5.8 5.2 5.1 5.4 5.0 4.8 5.0 4.8 5.0 5.1 4.9 5.0 5.1 5.3 5.5 5.6 5.7 5.8 5.7 5.7 5.8 5.9 6.0 6.1 6.4 6.7 6.2 6.4 6.2 6.3 5.6 5.6 5.5 5.8 5.7 5.4 5.3 5.7
7.2 7.0 6.7 5.9 5.6 5.5 5.7 5.2 4.7 5.5 5.0 5.3 4.5 4.7 4.9 4.5 4.6 4.6 4.9 5.3 5.4 5.3 5.2 5.5 5.6 5.8 5.9 6.0 6.0 5.7 6.5 6.0 5.7 5.9 6.2 5.6 5.5 5.3 5.3 5.3 5.1 5.3 5.4
6.6 6.5 6.2 5.4 6.0 5.8 5.6 5.0 4.8 5.1 4.6 4.8 4.7 4.5 4.1 4.3 4.3 4.5 4.9 5.4 5.2 5.2 5.4 5.4 5.3 5.3 5.3 5.2 5.1 5.0 5.2 5.5 5.7 5.8 5.8 5.5 5.7 5.4 5.2 5.0 5.1 5.0 5.0
6.3 6.1 5.7 5.9 5.4 5.2 5.3 5.3 4.9 4.9 5.0 5.0 5.1 4.7 4.5 4.8 4.7 4.8 5.2 5.1 5.1 5.4 5.4 5.0 4.9 4.8 5.3 5.2 4.9 5.0 5.3 5.5 5.8 5.6 5.5 5.7 5.5 5.6 5.5 5.2 4.9 5.0 5.1
6.6 5.9 5.6 5.3 5.2 5.1 5.0 5.2 5.1 5.1 5.2 5.2 4.8 4.9 4.6 4.8 4.6 4.8 5.0 4.8 5.4 5.1 5.4 5.4 5.3 4.9 5.5 5.6 5.3 5.4 5.3 5.3 5.7 5.2 5.5 6.4 5.8 5.7 5.1 5.4 5.2 5.2 5.4
5.8 6.0 5.3 5.6 6.0 5.3 5.0 4.7 4.9 4.9 4.7 4.9 4.8 4.8 4.6 5.1 5.2 5.0 5.0 4.8 5.0 4.9 5.3 5.1 5.5 5.6 5.3 5.5 5.5 5.4 5.6 5.5 5.3 5.5 5.5 6.2 6.0 5.7 5.9 5.8 6.2 6.3 5.8
5.7 5.7 5.6 5.4 5.3 5.4 5.4 5.6 5.5 5.4 5.4 5.4 5.1 5.2 5.2 5.4 5.2 5.3 5.2 5.2 5.3 5.1 5.2 5.2 5.0 5.4 5.4 5.5 5.5 5.2 5.0 5.7 5.1 5.4 5.9 6.0 6.1 6.1 5.9 6.2 5.6 5.5 5.3
5.7 5.7 5.7 5.8 5.5 5.7 5.9 5.7 5.6 5.9 5.9 5.9 5.8 5.7 5.6 5.6 5.6 5.6 5.6 5.2 5.5 5.4 5.2 5.3 5.6 5.6 5.3 5.7 5.5 5.3 5.6 5.4 5.3 6.0 6.1 6.4 6.5 6.5 6.1 5.6 5.4 5.0 5.4
5.5 5.0 5.1 5.4 5.5 5.7 5.9 5.9 5.9 5.8 5.9 6.0 6.0 5.8 5.8 5.8 5.9 5.7 5.9 6.0 5.7 5.5 5.6 5.4 5.4 5.4 5.6 5.7 5.6 5.5 5.5 5.7 6.0 6.4 6.6 6.6 6.7 6.4 6.0 5.5 4.9 4.9 5.0
5.4 5.8 5.7 5.6 5.4 5.4 5.4 5.4 5.5 5.5 5.3 5.4 5.6 5.7 5.8 5.8 5.7 5.6 5.6 5.6 5.8 5.8 5.6 5.6 5.6 5.7 5.8 5.8 5.8 5.5 5.7 6.0 6.1 6.1 6.0 6.0 6.1 6.3 5.9 5.6 5.3 5.2 5.0
6.0 5.6 5.3 5.5 5.5 5.7 5.9 5.9 5.7 5.7 5.8 5.8 5.9 5.9 6.1 5.9 5.7 5.7 5.8 5.8 5.7 5.7 5.8 5.8 5.6 5.6 5.7 5.7 5.6 5.7 5.7 5.8 5.8 5.7 5.7 5.8 5.7 5.7 5.7 5.4 5.3 5.2 5.2
6.0 6.0 5.9 6.1 6.1 5.9 5.7 5.6 5.8 5.7 5.7 5.9 6.0 6.2 6.3 6.3 6.3 6.2 5.9 5.8 5.9 6.1 6.2 6.1 5.9 5.8 5.8 5.7 5.6 5.6 5.8 5.9 5.9 5.8 5.9 6.0 6.0 5.8 5.4 5.4 5.4 5.4 5.4
6.1 5.9 5.7 5.8 5.8 5.8 5.7 5.7 5.6 5.8 5.9 5.8 5.9 5.8 5.9 6.0 6.1 6.2 6.3 6.5 6.4 6.3 6.2 6.2 6.2 6.3 6.4 6.2 6.0 5.9 6.0 5.9 5.8 5.6 5.7 5.9 5.8 5.7 5.4 5.4 5.4 5.4 5.4
5.9 5.8 5.5 5.5 5.1 5.5 5.7 5.8 5.7 5.6 5.6 5.6 5.6 5.6 5.6 5.7 5.7 5.7 5.9 6.1 6.3 6.3 6.4 6.5 6.5 6.5 6.4 6.5 6.5 6.3 6.4 6.0 6.1 5.9 5.6 5.7 5.7 5.8 5.4 5.5 5.5 5.6 5.7
5.6 5.6 5.5 5.6 6.1 6.0 5.8 5.7 5.5 5.7 5.8 5.9 5.9 5.9 6.0 5.9 5.8 5.9 6.0 5.9 6.0 6.0 6.2 6.4 6.6 6.6 6.6 6.6 6.6 6.7 6.8 6.4 5.9 5.8 5.8 5.7 5.9 5.7 5.6 5.4 5.5 5.6 5.7
5.9 5.6 5.4 5.1 4.9 4.8 4.8 4.9 4.8 4.9 5.0 5.1 5.4 5.7 6.0 6.2 6.2 6.1 6.0 5.9 6.0 6.1 6.3 6.2 6.3 6.7 6.9 6.8 6.8 6.8 6.7 6.3 5.7 6.1 6.3 6.1 5.7 5.7 5.6 5.6 5.6 5.7 5.7
4.4 4.3 4.2 4.1 4.1 4.1 4.1 4.1 4.4 4.6 4.9 5.1 5.5 6.0 6.3 6.4 6.6 6.7 6.8 6.6 6.1 6.0 6.2 6.0 6.1 6.2 6.6 6.8 6.8 6.7 6.8 6.7 6.4 6.3 6.4 6.2 6.0 6.1 6.0 5.9 6.0 6.0 6.0
3.9 3.8 3.6 3.6 3.5 3.6 3.6 3.8 3.6 4.0 4.4 4.9 5.5 6.1 6.3 6.5 6.7 7.0 7.0 6.8 6.3 6.4 6.3 6.3 6.2 6.3 6.6 6.7 6.8 6.6 6.5 6.6 6.6 6.5 6.5 6.7 6.7 6.4 6.5 6.5 6.2 6.2 6.1
3.5 3.3 3.5 3.3 3.1 3.4 3.4 3.4 3.5 3.8 4.1 4.6 5.1 6.0 6.3 6.5 6.7 7.1 7.1 7.3 7.2 6.7 6.8 6.8 6.8 7.0 6.6 6.6 6.3 6.6 6.5 6.5 6.9 6.8 6.8 6.8 6.7 6.4 6.9 6.8 6.5 6.3 6.3
3.5 3.3 3.3 3.3 3.3 3.2 3.3 3.3 3.4 3.5 3.6 3.8 4.6 5.7 6.4 6.7 7.0 7.3 7.4 7.6 7.4 7.3 7.3 6.9 6.7 6.5 6.6 6.7 6.7 6.4 6.5 6.5 6.8 6.9 7.0 7.0 7.0 6.6 6.6 6.7 6.7 6.7 6.5
3.9 3.9 3.7 3.7 3.5 3.5 3.5 3.4 3.4 3.3 3.6 4.2 5.1 5.8 6.1 6.4 7.0 7.2 7.3 7.2 7.1 7.2 7.3 7.0 6.7 6.7 6.4 6.4 6.7 6.8 6.7 6.7 6.9 6.8 6.9 7.0 6.9 6.9 6.9 6.6 6.7 6.8 6.9
4.0 3.9 3.8 3.7 3.6 3.6 3.5 3.4 3.6 3.8 4.2 5.2 5.7 5.8 6.0 6.5 6.7 6.9 7.0 6.9 6.9 6.9 7.0 6.9 6.7 6.3 6.5 6.4 6.5 6.5 6.3 6.5 6.7 6.6 7.0 6.9 6.9 6.8 6.8 6.7 6.6 6.8 6.9
4.0 3.9 3.7 3.7 3.6 3.5 3.3 3.3 3.4 4.0 4.7 5.6 5.7 5.8 6.2 6.6 6.9 7.0 6.6 6.4 6.3 6.5 7.0 7.1 7.0 6.8 6.5 6.9 6.8 6.9 6.9 6.9 6.9 7.2 6.9 6.9 6.3 6.8 6.6 6.7 6.7 6.7 7.1
4.0 3.8 3.7 3.6 3.4 3.3 3.2 3.2 3.6 4.3 5.1 5.5 5.7 6.0 6.4 6.9 7.0 6.7 6.6 6.5 6.3 6.9 6.9 7.1 7.1 7.3 7.3 7.2 6.9 7.3 7.4 7.0 7.3 7.2 7.0 6.6 6.6 6.8 6.6 6.5 6.5 6.7 6.9
Wind_Speed
3 4 3 4 3 4 6 5 5 1 2 9 9 6 10 9 8 8 14 13 14 14 12 6 6 6 7 8 6 4 5 4 3 1 2 2 2 3 4 6 7 7 8
3 1 4 2 4 2 4 5 6 6 2 3 4 5 3 3 4 6 9 16 14 15 11 8 6 7 6 6 5 4 3 3 3 3 1 2 2 1 2 3 4 5 8
6 5 3 3 4 2 7 4 5 9 7 2 3 4 6 5 5 4 3 5 12 14 12 10 5 6 5 4 5 5 6 3 3 4 3 1 4 1 1 2 4 5 4
4 5 6 5 4 2 3 4 9 8 8 6 4 3 4 3 1 3 2 4 3 5 5 6 5 4 3 5 4 4 3 3 4 2 4 2 2 2 1 1 2 4 5
10 7 7 5 7 2 4 4 9 10 9 7 6 4 8 4 4 3 5 1 3 6 8 8 6 4 3 3 5 4 4 3 3 2 3 0 1 2 2 3 2 1 2
10 8 4 10 3 3 5 10 12 9 11 8 6 5 5 5 3 3 2 3 3 3 5 4 4 5 5 5 5 5 6 5 4 3 3 3 3 3 3 1 2 3 2
9 6 4 3 2 2 6 9 5 8 8 5 5 4 4 7 5 3 0 3 3 3 3 2 4 4 6 6 5 6 6 5 5 7 5 2 4 3 3 3 3 3 2
11 11 6 4 2 2 2 4 5 6 3 1 4 5 5 5 5 6 6 6 5 5 4 6 8 8 7 7 7 6 6 7 8 9 5 5 4 4 3 3 3 2 2
11 6 4 4 6 6 4 2 1 2 3 4 2 2 3 5 4 5 6 7 8 8 11 13 13 13 11 11 10 9 10 9 8 7 7 4 3 3 3 3 3 4 4
9 8 6 9 6 6 5 7 4 4 0 1 4 4 5 5 8 10 12 11 12 12 12 14 15 14 13 12 11 9 9 10 6 5 7 5 4 4 3 3 3 2 4
8 5 7 7 7 7 8 8 7 7 7 6 4 4 1 4 5 6 8 9 8 9 9 9 9 9 10 9 10 9 10 10 8 5 8 7 5 5 4 4 3 3 3
6 8 7 7 8 8 8 7 7 7 6 6 7 6 5 4 3 4 5 4 5 5 5 6 6 7 8 9 10 11 10 9 10 9 7 6 4 6 5 4 5 4 4
9 8 9 10 9 8 9 10 9 8 7 7 7 7 6 5 5 5 4 4 5 5 5 6 7 6 7 8 9 9 9 9 9 9 9 8 8 6 5 4 5 4 3
9 8 8 7 7 6 8 9 8 7 7 7 7 6 6 7 6 6 5 5 5 6 6 7 9 10 10 9 8 8 8 7 7 9 9 9 10 9 7 6 6 5 5
9 8 9 6 5 7 7 7 6 7 6 7 8 8 7 6 6 6 7 5 5 6 6 6 8 8 9 9 11 9 8 9 7 6 6 6 6 9 9 5 5 5 4
6 5 8 11 8 8 9 8 7 6 6 6 7 8 9 8 8 7 6 6 6 6 6 8 9 9 8 12 13 12 9 9 10 9 6 6 10 9 11 11 12 9 6
0 4 4 4 7 7 7 7 6 5 7 8 9 10 10 10 10 8 8 8 7 6 7 8 8 10 10 15 18 17 9 10 6 9 9 8 6 9 7 12 11 9 9
1 2 1 2 2 4 6 7 7 6 6 5 6 7 7 9 11 11 9 9 6 7 7 9 9 9 8 14 17 19 11 11 14 11 12 11 10 8 9 7 6 5 4
8 7 7 7 7 10 11 11 10 9 9 9 10 9 10 12 12 11 11 9 9 10 9 6 11 11 11 14 16 14 10 10 12 11 13 12 11 17 17 9 8 6 4
6 7 7 7 8 7 10 12 14 16 18 19 18 16 14 12 12 13 13 11 11 11 9 11 10 15 13 15 19 17 7 8 7 9 9 18 15 23 22 11 10 8 6
6 5 5 5 6 7 9 9 10 11 13 14 17 19 19 18 17 15 12 11 10 12 13 12 12 11 13 12 23 24 11 9 8 8 7 8 20 22 23 17 10 9 9
2 4 3 5 6 7 6 8 9 10 11 13 15 16 19 16 16 21 19 13 11 14 13 11 11 9 11 18 21 26 23 16 10 10 8 9 20 19 20 16 18 17 15
5 4 4 5 5 5 5 9 11 10 10 12 13 15 16 15 16 17 19 13 12 12 10 10 10 9 8 8 21 25 26 23 12 8 13 17 19 18 16 18 19 18 8
5 4 4 5 5 5 7 9 10 11 12 13 13 14 13 14 14 12 13 12 11 11 10 10 9 9 8 9 9 12 13 19 13 13 11 14 15 15 11 12 11 7 7
4 4 4 4 5 5 5 6 7 10 12 13 13 13 12 13 12 12 12 12 14 13 11 11 9 9 9 11 15 15 12 12 15 14 9 8 9 9 8 7 5 6 6
4 4 4 5 6 6 6 8 9 10 11 13 11 12 12 12 11 12 14 22 24 28 23 24 15 10 18 19 22 25 26 24 25 10 11 10 11 11 10 10 8 7 10
Wind_Direction
251 304 339 59 192 192 202 161 164 90 7 136 155 172 172 161 157 165 167 165 170 170 171 172 180 176 182 193 187 168 192 208 173 100 292 255 242 159 152 138 138 127 117
276 322 268 144 78 97 164 144 168 166 117 63 135 164 188 164 155 151 169 176 167 173 176 181 193 184 184 176 176 162 172 188 170 169 147 232 339 71 189 141 140 135 124
222 156 182 176 151 159 95 151 196 156 161 253 87 194 176 158 148 164 176 186 174 177 183 189 171 174 157 172 170 146 152 176 84 121 134 255 219 149 242 176 156 140 121
157 145 206 212 136 139 132 203 163 179 154 132 88 150 159 144 220 165 130 149 150 181 179 170 153 162 172 175 190 199 173 174 178 116 126 123 357 243 180 25 140 143 157
153 157 215 182 61 319 242 234 174 159 119 111 124 116 108 118 72 54 71 139 143 176 162 168 166 157 198 195 166 184 149 150 209 161 157 285 94 234 130 194 202 51 179
159 188 241 61 216 301 286 183 159 156 132 132 157 129 100 85 47 44 355 20 271 218 170 132 150 173 198 173 205 187 166 190 193 187 239 178 163 192 151 130 181 189 176
153 144 84 160 166 8 4 38 38 134 120 151 145 124 120 133 179 172 218 268 240 236 207 223 179 196 203 207 188 195 192 191 206 196 191 220 163 171 171 163 192 158 153
54 45 359 318 291 80 88 334 24 16 82 198 176 144 163 180 210 210 197 202 213 229 171 213 227 225 203 198 207 211 198 207 212 197 197 186 189 165 153 174 162 177 170
56 67 53 50 59 70 96 179 237 229 250 241 229 206 193 197 208 219 231 227 211 207 204 214 218 214 213 208 205 215 207 199 197 191 177 185 172 169 177 179 183 160 184
65 56 53 53 39 54 59 51 58 93 12 152 257 228 224 243 240 242 240 236 234 236 219 213 215 208 205 209 200 211 197 192 178 169 171 176 168 168 157 169 169 146 158
77 72 65 55 51 43 44 45 46 42 29 24 45 60 261 239 223 228 222 227 231 227 226 214 214 204 207 199 198 201 185 186 161 170 183 185 161 162 156 159 154 174 154
54 53 42 43 40 43 40 37 36 46 34 18 12 6 344 332 305 290 257 224 219 204 195 207 193 197 195 194 197 198 191 177 172 177 168 179 173 176 167 165 167 171 165
56 42 39 38 33 33 28 27 21 18 20 16 9 349 336 328 317 302 276 235 221 207 201 190 199 198 201 200 205 197 178 177 178 179 177 177 171 175 168 181 172 167 156
48 46 38 39 34 27 27 14 14 19 7 357 356 340 329 320 310 301 292 256 230 215 209 209 202 195 197 198 199 194 180 193 196 178 180 179 180 177 175 176 175 179 150
31 32 25 22 20 17 16 7 357 355 349 347 348 335 326 318 296 293 285 260 266 259 236 209 216 219 200 188 180 178 190 194 186 171 172 178 176 165 170 167 181 162 147
27 9 6 9 347 356 346 348 345 342 347 350 338 329 330 325 317 311 289 274 254 252 254 242 222 207 206 199 181 172 179 187 186 175 157 144 137 141 165 169 168 168 171
85 28 11 341 358 345 338 355 308 330 347 343 330 326 331 328 319 308 303 287 261 239 237 235 236 224 216 196 190 187 175 159 195 175 159 159 155 146 145 147 145 153 168
36 54 142 37 351 329 337 331 327 326 322 320 309 318 319 318 311 313 306 299 275 252 236 235 224 230 231 210 200 188 183 188 173 194 175 165 162 161 153 143 137 146 149
359 6 355 340 336 348 350 349 343 337 338 331 328 331 323 314 312 308 301 303 302 288 255 225 228 223 222 203 207 193 195 185 195 187 185 163 164 170 163 152 155 155 157
341 333 339 358 360 345 350 349 342 339 335 334 332 329 321 311 298 286 281 285 281 275 269 255 234 223 220 196 202 196 204 194 171 188 184 173 169 172 171 162 162 159 174
313 359 359 328 307 329 335 332 309 316 320 328 319 313 312 315 311 300 287 271 269 271 267 257 250 229 223 217 196 187 193 201 191 180 179 182 184 179 176 172 167 172 154
206 221 247 274 288 287 285 305 315 309 304 297 294 302 306 308 307 305 300 289 278 267 254 248 250 239 223 212 210 194 193 194 194 195 187 184 182 183 180 174 179 166 154
233 233 249 276 271 265 310 303 303 301 294 294 295 297 294 298 297 297 292 289 281 272 259 251 240 237 225 212 211 205 197 191 195 189 181 173 178 180 186 177 179 171 156
251 232 241 252 254 245 309 303 303 310 305 300 303 303 294 297 294 297 298 275 273 271 261 251 237 222 209 207 204 208 204 198 186 170 169 176 174 177 177 177 184 152 164
258 237 251 262 281 294 291 286 309 316 319 316 313 310 305 302 296 289 289 288 288 263 263 256 239 218 213 208 205 207 201 196 185 160 152 168 168 175 178 169 157 155 165
295 317 294 299 295 310 310 309 318 329 327 317 317 315 314 306 302 299 295 285 280 282 260 253 229 221 222 209 204 209 207 198 177 166 168 174 174 180 179 173 171 168 175